ECMWFFLT1_500_spd_132.txt.gz
Wind_Speed
29 29 28 26 25 24 22 21 21 20 20 19 19 20 21 21 20 19 19 18 19 18 16 16 15 15 16 17 16 15 14 14 14 15 16 15 15 14 13 13 15 16 18 18 19 19 19 19 20 21 22 23 24 26 28 30 33 34 36 37 39 39 40
29 29 28 27 26 23 21 20 21 20 19 19 19 21 22 21 20 19 19 18 18 17 15 15 15 15 16 16 16 16 14 14 15 15 15 15 14 13 13 14 16 17 18 19 20 20 20 20 21 22 23 23 24 26 29 31 34 35 37 38 40 40 41
28 28 28 28 26 22 20 20 20 19 18 19 20 21 22 21 20 19 19 18 17 16 15 15 14 15 16 16 16 16 14 14 14 15 15 15 14 14 14 15 17 18 19 19 20 20 21 21 22 22 23 24 25 27 30 32 35 36 38 40 41 42 43
27 28 29 28 25 21 20 19 20 19 19 20 21 22 21 21 20 20 19 17 17 16 16 16 15 15 15 15 15 15 14 14 14 15 15 14 14 14 15 16 17 18 19 20 21 21 22 22 23 23 24 25 26 29 31 33 35 38 39 41 42 43 44
27 28 29 27 23 21 20 19 19 19 19 20 22 22 21 21 21 20 19 18 17 17 17 17 16 16 15 14 15 14 14 15 15 15 15 15 15 15 15 16 18 19 20 21 21 22 23 23 24 25 25 26 28 30 32 34 36 39 40 42 43 43 44
28 29 28 26 23 21 20 19 19 20 20 21 22 22 21 21 21 20 19 19 18 18 18 17 17 16 15 14 14 14 14 16 16 15 15 16 15 15 16 17 19 19 20 21 22 23 24 25 25 26 27 28 29 31 33 35 38 39 41 42 43 44 45
29 29 27 25 22 21 20 18 20 21 21 22 23 22 21 21 21 21 20 20 19 19 19 18 17 17 16 14 14 14 15 16 16 16 16 16 16 16 17 18 19 20 21 22 23 24 25 26 26 27 28 29 31 32 34 36 38 40 42 42 43 44 45
28 28 26 24 22 22 20 19 20 21 22 23 23 22 21 21 22 21 21 20 20 19 19 18 18 17 16 15 14 15 16 16 16 16 16 16 16 17 18 19 20 20 22 22 23 24 25 26 27 28 29 30 32 34 35 37 39 41 42 43 44 45 45
28 27 25 22 22 22 20 19 20 21 22 23 23 22 21 21 22 22 21 21 20 19 19 19 19 18 17 16 15 16 16 16 17 17 17 17 17 18 19 20 20 21 22 23 24 25 26 27 28 28 30 31 33 35 36 38 40 41 43 43 44 45 46
27 27 24 23 24 23 20 19 20 21 22 23 22 22 22 22 22 22 21 21 21 20 19 19 19 19 18 16 16 16 16 17 17 17 18 18 19 19 20 20 21 22 23 24 25 26 27 28 28 29 30 32 34 35 37 39 41 42 43 44 45 46 46
27 27 24 23 25 22 19 19 21 22 23 23 22 22 22 22 22 21 22 22 21 20 19 19 19 19 18 17 16 16 17 17 18 18 19 19 20 20 21 21 22 23 23 25 26 27 28 29 29 30 31 32 34 36 38 40 41 42 44 45 46 46 46
26 25 23 24 24 21 20 21 21 22 22 22 22 22 22 22 22 22 22 22 22 21 20 19 19 19 18 18 17 17 17 18 18 19 20 21 21 21 21 22 23 24 24 26 27 28 28 29 30 31 31 33 35 37 38 40 42 43 44 45 46 46 47
25 23 23 24 23 21 21 21 21 22 22 23 23 22 22 22 22 22 22 22 22 21 20 19 19 19 19 18 18 18 18 19 19 20 21 21 22 22 22 23 24 25 26 27 28 28 29 30 30 31 32 33 35 37 39 41 42 43 45 46 46 46 47
24 23 23 24 23 21 21 22 22 22 23 23 23 22 22 22 22 22 22 22 22 21 20 19 18 19 19 19 19 19 19 20 20 21 21 22 23 23 23 24 25 26 27 28 28 29 30 30 30 31 32 34 36 38 39 41 42 44 45 46 46 46 46
25 23 23 24 23 22 21 22 23 23 23 23 23 22 22 22 22 22 22 23 23 22 20 19 18 19 19 19 20 20 20 21 21 21 22 23 24 24 25 26 26 27 28 29 29 30 30 30 31 32 33 35 37 38 39 41 42 44 45 46 46 46 46
25 23 23 24 23 22 22 23 24 24 24 23 23 22 22 22 23 23 23 23 23 22 21 19 18 19 19 20 20 21 21 22 22 22 23 24 24 25 26 26 27 28 29 29 30 31 31 31 32 32 34 36 38 39 39 41 42 44 45 45 45 45 45
25 24 24 25 24 23 24 24 24 24 24 24 23 23 22 23 23 23 24 24 24 23 21 19 19 20 20 20 21 22 22 23 23 23 24 24 25 26 26 27 28 28 29 30 31 32 32 32 33 34 35 37 38 39 39 40 42 44 45 45 45 44 44
25 24 25 25 24 24 25 25 24 25 25 25 23 23 23 23 24 24 24 24 24 22 21 20 20 20 21 21 21 22 23 23 24 24 24 25 26 26 27 27 28 29 29 30 31 32 33 34 35 35 36 37 38 38 39 40 42 44 44 44 44 43 43
25 24 25 25 25 25 26 25 25 25 25 25 23 23 23 24 25 25 24 24 23 22 21 21 21 21 21 21 22 22 23 23 24 24 25 26 26 27 27 28 28 28 29 30 31 32 33 35 37 38 39 38 36 36 38 40 42 43 43 43 42 42 43
26 25 25 26 26 26 26 26 26 26 25 24 23 24 24 25 26 25 24 24 23 23 22 21 22 22 22 22 22 22 22 23 23 24 25 26 26 27 27 27 27 27 28 30 31 32 34 35 38 42 42 38 34 35 37 40 41 41 41 41 41 42 43
27 26 26 26 26 26 27 27 26 26 25 24 24 25 25 26 26 25 24 24 23 23 22 22 22 22 22 22 22 22 22 22 23 23 24 25 25 25 25 25 26 27 28 29 31 32 34 35 38 40 36 32 33 37 38 39 40 40 40 40 40 42 42
27 26 27 26 26 27 28 28 28 26 25 25 25 26 26 26 26 26 25 25 24 23 22 22 22 22 22 22 22 22 22 22 23 23 24 24 24 24 24 24 26 27 29 31 32 33 34 35 36 37 33 31 35 38 38 38 39 38 39 39 40 42 42
28 27 27 26 27 28 29 29 28 27 26 26 26 26 26 27 26 26 26 25 24 24 23 22 22 22 22 22 22 23 23 23 23 23 23 24 23 23 24 25 27 29 30 32 32 33 35 35 35 37 37 37 37 37 37 38 38 37 38 39 41 42 42
28 26 27 27 28 30 31 30 29 28 27 27 27 27 27 27 27 27 27 26 25 25 24 23 23 22 22 22 23 23 23 23 23 23 24 24 24 24 26 28 29 30 31 32 33 34 35 34 35 38 40 39 38 37 38 38 37 37 38 40 41 42 42
28 27 28 29 30 31 32 31 31 30 28 27 27 27 27 27 28 28 27 27 26 26 26 25 23 22 22 23 23 24 24 24 24 24 24 25 25 26 27 29 30 30 31 32 34 34 33 34 38 40 40 39 38 38 38 38 37 37 39 40 41 42 41
29 28 29 30 31 32 32 32 32 31 29 28 27 27 27 28 28 28 28 28 27 27 27 26 24 23 23 24 24 24 24 24 24 24 25 26 27 27 29 30 30 30 31 33 33 33 34 37 39 40 39 39 40 39 38 38 37 38 39 40 41 41 41
30 30 31 31 32 33 33 33 33 32 30 28 26 26 27 28 29 29 29 29 28 28 28 26 25 24 24 25 25 25 25 25 25 25 26 27 28 29 30 30 30 30 31 32 33 35 37 39 39 38 39 40 40 39 38 37 37 37 38 40 41 41 40
32 32 32 32 33 34 34 34 33 32 31 28 26 26 28 29 30 29 29 29 29 29 28 27 26 25 25 26 27 26 25 25 25 26 27 28 28 29 30 30 30 30 31 32 34 36 37 37 36 37 40 41 40 38 37 36 36 37 38 39 40 40 40
34 34 34 34 35 35 35 35 34 33 31 28 27 27 28 29 30 29 29 29 29 29 29 27 26 26 27 28 28 27 27 26 26 26 27 27 28 29 29 30 30 31 32 34 36 37 37 36 37 39 40 39 38 37 36 36 36 37 38 39 40 40 40
35 36 36 36 36 36 36 36 35 34 32 29 28 29 30 31 30 29 28 29 29 30 29 28 28 28 29 29 29 29 28 27 26 26 26 27 28 29 29 30 30 32 34 37 38 38 38 38 39 40 39 38 37 37 36 35 36 37 38 39 40 40 40
36 37 37 38 38 37 37 36 37 36 33 31 31 33 34 33 30 28 28 30 31 31 31 30 30 30 31 31 31 30 28 27 26 26 26 27 28 29 29 30 32 34 36 38 39 39 39 40 40 39 38 37 37 36 35 35 36 37 38 39 40 40 40
37 38 38 39 39 39 37 37 38 37 34 33 34 35 35 34 32 30 31 33 33 32 32 32 31 32 32 31 30 29 27 25 25 26 26 27 28 29 30 32 34 36 38 38 39 40 40 40 40 39 38 37 36 35 35 35 36 37 38 39 40 40 40
38 38 39 40 41 41 39 39 40 38 35 34 34 34 33 33 34 34 34 34 33 31 30 30 30 31 31 31 31 29 25 24 25 26 26 28 29 31 32 34 36 37 38 39 40 40 40 40 39 38 37 36 36 35 35 35 36 37 38 40 41 41 40
40 40 41 42 43 42 41 41 41 38 36 35 34 34 34 34 35 37 35 34 33 31 30 29 29 30 31 32 31 27 23 24 26 27 27 29 31 33 35 36 37 38 38 39 39 39 39 38 38 37 36 36 35 35 35 35 36 37 38 39 40 40 40
42 42 43 44 43 42 42 42 41 39 38 36 34 36 36 35 35 35 33 31 32 32 32 31 31 31 31 29 27 25 25 26 27 28 29 31 33 35 36 37 38 38 39 39 38 37 37 36 36 36 36 35 34 34 34 35 36 37 38 39 39 39 40
43 44 43 43 43 43 43 43 41 40 40 37 34 35 37 36 34 31 29 29 29 29 30 30 30 30 29 27 25 25 26 28 28 29 31 34 35 37 37 37 38 38 38 38 37 36 36 35 35 35 35 35 34 34 34 35 36 37 38 38 39 39 41
41 42 43 44 44 44 43 42 41 41 40 38 35 35 36 35 33 30 27 28 29 29 29 29 28 29 29 27 25 26 27 28 30 32 34 35 36 37 37 38 38 38 37 36 36 35 35 35 35 35 35 34 34 34 34 35 36 37 37 38 39 40 41

ECMWFFLT1_500_spd_135.txt.gz
Wind_Speed
23 24 26 27 28 28 26 24 24 25 25 24 22 19 18 17 18 20 21 21 19 19 19 20 21 21 21 21 20 19 19 19 18 17 17 18 18 17 17 17 18 19 19 19 19 18 18 19 20 20 19 18 19 20 22 24 26 28 30 31 33 35 37
25 27 29 29 29 29 27 24 25 26 26 24 22 19 17 18 19 21 21 20 19 19 19 20 21 21 20 20 20 20 19 19 18 17 18 18 18 17 17 18 19 19 20 19 18 18 19 20 20 20 19 19 20 21 24 26 27 29 31 33 35 36 38
27 29 30 30 30 29 26 25 25 26 25 24 22 19 18 18 19 20 20 20 19 20 20 20 20 20 20 20 20 20 19 19 19 18 18 18 18 17 18 19 19 20 20 19 18 18 19 20 20 20 20 20 21 22 25 27 28 30 32 33 35 37 39
29 30 30 31 30 28 27 25 25 26 25 25 23 20 18 19 20 20 20 20 20 20 20 20 20 21 21 20 20 19 19 20 19 19 19 19 18 18 19 19 20 20 20 19 18 18 19 20 21 21 21 21 22 24 26 28 29 31 32 34 36 38 39
30 32 32 32 30 28 27 26 25 25 25 25 23 20 19 19 20 20 20 20 21 20 20 21 21 22 22 20 18 18 19 19 20 19 19 19 18 18 19 20 20 20 20 19 18 19 20 21 21 21 21 22 23 25 27 29 30 32 33 35 37 38 39
32 34 34 33 30 29 28 26 25 25 25 25 23 21 19 20 21 21 21 20 21 21 21 21 21 21 21 20 19 19 19 19 19 19 19 19 19 19 20 20 20 20 20 19 19 19 20 21 22 22 23 24 25 27 28 30 31 33 34 35 37 38 40
33 35 35 34 31 30 29 27 25 24 25 25 24 22 20 20 21 21 21 21 21 21 21 21 21 21 20 20 20 19 19 19 19 19 19 19 19 20 20 20 20 21 20 20 20 20 21 22 22 23 24 25 27 28 30 31 32 33 35 36 37 39 40
34 36 36 35 33 31 30 27 24 25 25 25 24 22 20 21 22 21 21 21 21 21 21 21 21 21 20 20 19 19 19 19 19 20 19 19 19 20 21 21 21 21 21 20 20 21 21 22 23 24 25 27 28 30 31 32 33 34 35 37 38 39 40
34 35 37 37 34 32 30 26 25 25 25 25 24 22 21 22 22 21 21 22 21 21 21 21 21 21 20 20 19 19 20 20 20 19 19 19 20 21 21 22 22 22 21 21 21 22 22 23 24 25 27 28 30 31 32 33 33 34 36 37 38 39 40
34 36 37 37 34 33 30 26 25 26 25 25 24 23 22 22 21 21 21 22 21 21 20 21 21 21 20 20 20 20 20 20 20 19 19 19 20 21 22 22 22 22 22 22 22 23 24 25 26 27 28 30 31 32 33 34 34 35 37 38 39 40 40
35 36 37 36 34 32 29 25 25 26 25 25 25 24 23 22 21 21 21 21 21 21 20 20 21 21 21 20 19 19 20 20 20 20 19 20 21 22 22 23 23 22 23 23 23 24 25 26 27 28 30 31 32 33 34 35 35 36 37 39 40 40 41
36 35 35 35 33 31 28 25 26 26 25 25 25 24 23 21 22 22 21 21 21 21 20 20 21 21 21 20 20 20 20 20 20 20 20 21 21 22 23 23 23 23 23 24 25 25 26 27 28 29 31 32 33 34 35 36 36 37 38 39 40 41 41
34 35 35 34 32 30 27 26 26 26 25 25 25 24 23 22 22 22 22 21 21 21 21 20 20 21 21 20 20 20 21 21 21 21 21 22 22 23 23 23 23 24 24 25 26 27 28 29 29 31 32 33 34 35 36 37 38 38 38 39 40 40 41
32 33 33 32 30 28 26 27 27 26 25 25 25 24 23 22 22 22 22 21 21 21 21 21 20 20 21 21 21 21 21 21 21 22 22 22 22 23 23 23 24 24 25 26 27 28 29 29 30 31 32 33 34 35 36 38 39 39 39 38 39 40 42
28 30 30 28 27 27 27 28 28 27 25 25 25 24 23 22 23 23 22 22 21 21 21 21 21 21 21 21 21 21 21 21 22 22 23 23 23 23 23 24 24 25 26 26 27 28 29 30 31 32 33 33 34 35 36 39 41 42 38 35 37 40 42
27 28 27 26 26 27 27 28 29 27 26 25 25 24 23 23 23 23 23 23 22 22 22 22 21 21 21 21 22 22 22 22 22 22 23 23 24 24 24 24 24 25 26 27 28 29 30 30 31 32 32 32 33 35 36 40 45 43 37 34 37 40 41
28 28 26 25 27 28 28 29 29 28 27 25 25 24 24 23 23 23 24 24 23 23 22 22 22 21 22 22 22 22 22 22 22 22 23 23 24 24 25 25 25 26 27 27 28 29 29 30 31 31 31 32 33 34 36 39 42 39 33 34 38 40 40
29 28 27 27 28 29 29 30 30 29 27 26 25 24 24 24 24 24 24 24 24 23 23 22 22 22 22 23 23 23 23 22 22 22 22 22 23 24 25 25 26 27 27 27 27 28 28 29 30 30 31 31 32 34 36 37 39 37 34 35 38 39 39
29 28 28 29 30 31 30 31 31 29 28 27 26 24 24 24 25 25 25 25 24 23 23 23 23 23 23 23 23 23 23 22 22 21 21 21 21 22 23 24 25 25 25 25 26 27 27 28 29 30 30 31 33 34 35 36 38 38 36 36 37 38 38
30 30 30 30 32 32 31 32 31 30 29 27 26 25 24 24 25 25 25 25 25 24 24 24 24 24 24 24 24 24 23 22 21 21 20 20 20 21 21 22 23 23 23 24 25 26 27 28 29 29 30 32 33 34 34 36 37 38 37 37 37 37 37
30 30 30 31 33 32 32 32 32 31 29 28 26 25 24 25 25 25 25 26 26 25 25 25 25 25 24 24 24 23 23 22 21 21 20 20 20 20 20 21 21 22 23 24 25 25 27 28 29 29 31 33 33 33 34 36 37 36 37 37 37 37 37
32 31 31 32 33 32 32 33 33 31 30 28 27 25 24 24 25 25 26 26 27 26 26 26 26 25 25 25 24 23 23 22 22 21 21 20 20 20 20 21 21 22 23 24 25 27 28 29 30 30 30 31 32 33 35 36 36 36 37 37 37 37 37
33 32 31 32 33 33 33 33 32 32 30 29 27 26 25 24 24 25 26 27 27 27 27 27 27 26 26 26 25 24 23 23 22 22 22 22 21 21 21 22 23 23 24 26 26 28 29 30 30 30 30 30 32 35 36 35 35 36 37 37 36 36 36
33 32 32 33 34 34 34 33 33 32 31 30 28 27 26 25 24 25 26 27 28 28 28 28 27 27 27 27 26 25 24 23 23 23 23 23 22 22 23 24 25 25 26 27 28 28 29 29 29 30 30 31 34 35 35 35 36 37 36 36 36 36 36
33 33 33 34 34 35 34 33 33 33 31 30 29 27 26 25 25 25 26 27 28 29 30 29 28 28 28 28 27 26 24 24 24 24 24 24 23 24 24 25 26 26 27 27 28 29 29 29 30 30 31 33 35 35 35 36 37 36 35 35 35 36 37
33 33 34 34 35 35 34 33 33 33 32 32 30 28 27 26 25 25 26 28 29 30 30 30 29 29 29 28 28 26 25 25 24 24 24 24 25 25 25 26 26 26 27 28 28 29 30 30 30 31 33 35 36 36 36 37 36 35 34 35 35 36 36
32 32 33 35 36 35 34 33 33 33 33 32 31 29 28 26 25 25 26 28 30 31 31 30 30 30 30 29 28 27 26 25 25 25 25 26 26 26 26 26 26 27 28 28 28 29 30 30 30 32 35 36 37 37 37 37 35 34 34 35 35 36 36
32 31 33 35 36 35 34 34 34 34 34 33 32 31 29 25 24 25 27 29 30 31 31 31 31 31 30 30 29 27 26 26 26 27 27 27 27 27 26 26 27 28 28 28 29 30 30 30 31 34 36 37 38 38 37 36 35 34 34 35 35 35 36
34 33 34 36 37 36 35 35 35 35 35 34 33 32 30 26 25 26 28 29 30 31 32 31 32 32 31 30 29 27 27 27 28 28 28 28 28 28 27 27 27 28 29 29 29 29 30 31 33 35 37 37 38 38 37 36 35 34 34 34 35 35 36
36 35 35 37 37 37 36 36 37 37 36 35 34 33 32 29 27 28 30 30 30 31 32 32 33 33 32 31 29 29 28 29 29 30 30 29 30 29 28 27 27 28 29 29 29 29 31 33 35 36 37 37 38 37 36 35 34 34 34 34 34 35 36
39 37 37 38 38 38 38 39 39 38 37 36 36 35 34 32 31 31 31 30 30 32 33 34 35 35 33 32 32 32 32 32 32 32 32 31 30 29 28 28 28 29 29 29 29 31 33 35 35 36 36 36 36 36 35 34 33 34 33 33 34 35 36
42 39 39 39 40 40 41 41 41 40 39 38 38 37 36 34 33 34 33 32 32 33 34 36 37 36 35 35 36 35 34 34 33 33 33 31 29 28 27 28 29 29 29 29 31 33 34 35 35 35 35 35 35 35 34 33 33 33 33 33 34 36 36
42 41 41 42 42 42 43 43 42 41 40 39 39 39 38 37 36 36 35 34 32 33 34 35 36 36 36 36 37 36 34 33 32 33 34 32 29 27 28 29 29 29 29 30 32 34 34 34 34 34 33 34 34 34 33 32 33 33 32 33 34 36 37
43 43 44 45 45 44 43 42 41 41 41 40 40 40 40 39 37 37 37 35 33 33 35 35 35 35 37 37 37 36 33 32 33 33 32 28 27 27 28 28 28 29 30 32 33 33 33 34 34 34 33 33 33 33 32 32 32 32 32 33 34 36 36
41 41 40 40 40 40 40 39 39 40 41 41 40 41 42 40 38 38 38 36 33 34 36 37 36 35 35 35 37 37 35 32 32 30 26 24 25 27 28 28 30 31 32 33 33 33 33 34 34 33 32 32 32 32 32 32 32 31 32 33 35 36 36
38 38 35 33 35 38 38 39 39 40 41 42 42 42 42 40 40 40 38 36 35 36 37 37 36 34 32 31 33 35 35 32 29 27 26 26 27 28 29 30 32 33 33 33 33 33 34 34 33 32 32 32 31 31 31 32 31 31 32 34 35 36 36
38 37 34 32 33 37 38 39 40 41 42 43 44 44 44 42 40 40 39 37 37 38 37 36 35 34 33 31 30 31 31 30 28 28 28 28 29 30 31 33 34 34 34 34 34 34 34 33 32 31 32 32 31 31 31 31 30 31 33 34 35 36 36

ECMWFFLT1_500_spd_138.txt.gz
Wind_Speed
24 25 25 24 23 23 22 23 23 23 22 21 22 23 23 21 19 19 20 20 20 19 18 18 18 19 20 21 21 21 21 22 23 24 22 21 21 22 22 21 21 21 20 20 20 20 19 20 21 20 20 20 21 22 22 24 25 27 30 30 31 32 33
25 26 27 27 26 25 24 24 25 24 23 22 22 24 23 21 19 20 21 21 20 19 18 18 18 19 20 20 20 20 21 22 23 23 22 21 21 22 22 22 21 21 21 21 21 21 20 20 21 21 21 21 21 21 23 25 26 28 30 31 32 33 35
25 27 28 28 28 28 26 25 25 24 23 22 23 24 23 21 20 20 21 21 20 19 18 18 18 19 19 20 19 19 21 23 23 22 21 21 22 23 22 22 22 22 22 22 22 21 21 21 21 21 21 22 21 22 24 26 27 29 31 32 34 35 36
26 27 28 29 30 30 28 26 25 24 23 23 24 25 23 21 20 21 22 22 21 19 19 18 18 19 19 19 19 19 21 22 22 22 21 22 23 23 23 22 22 22 23 23 22 22 22 22 22 22 22 22 22 22 25 27 28 30 32 33 35 36 37
25 27 28 29 30 31 30 28 26 25 24 24 24 25 24 22 20 21 22 23 22 20 19 19 19 19 19 19 19 19 20 21 22 21 21 22 23 22 22 22 22 22 23 23 22 22 23 23 23 23 23 23 23 23 25 28 30 31 33 35 36 37 38
24 26 28 30 31 32 31 29 27 26 25 25 25 26 24 22 21 22 23 24 22 20 19 19 19 19 19 19 19 20 20 20 20 21 21 22 22 22 22 22 22 22 22 22 22 23 23 23 23 23 24 24 25 25 26 29 31 32 34 36 37 38 38
24 26 28 30 31 32 32 31 28 27 26 26 27 26 25 23 22 23 24 24 23 20 19 19 19 19 19 19 19 19 19 19 19 20 20 21 21 21 21 21 22 22 22 22 23 23 24 24 23 24 24 25 26 27 28 30 31 33 35 37 38 38 39
24 25 27 29 31 32 33 33 30 28 28 27 28 27 25 24 23 24 25 25 23 20 20 20 19 19 19 19 19 18 19 19 19 20 20 20 21 21 21 21 21 22 22 23 23 24 24 24 24 24 25 26 27 29 30 31 32 34 35 37 38 39 40
24 25 26 28 31 33 35 34 32 31 30 28 28 28 27 25 24 25 26 25 23 21 20 20 19 19 19 18 18 18 18 19 20 20 20 20 21 20 20 20 21 22 23 23 23 24 24 24 24 25 26 27 29 30 31 32 34 34 36 37 38 39 41
25 25 26 28 32 35 35 35 35 34 32 29 29 29 28 27 26 26 26 25 23 21 20 20 19 19 19 18 18 18 18 19 20 20 20 20 21 21 20 20 21 22 22 23 23 24 24 24 25 26 27 28 30 31 32 33 34 34 36 37 38 39 42
26 25 27 30 33 36 35 35 36 35 32 29 29 29 29 28 27 27 26 25 23 22 20 20 20 19 19 18 18 18 19 19 20 20 20 20 21 21 21 21 21 21 22 23 23 24 24 24 25 26 28 29 30 32 33 34 34 34 36 37 38 39 43
27 26 28 31 34 36 35 34 36 35 32 29 28 29 29 28 28 27 26 24 23 22 21 20 20 19 19 18 18 18 19 19 20 20 20 21 21 22 21 21 21 21 22 23 23 24 24 25 26 27 28 29 31 32 33 34 34 33 34 36 38 39 41
28 28 29 32 34 36 35 34 35 34 31 28 28 28 29 29 29 28 26 24 23 22 21 21 21 20 19 18 18 18 19 19 20 20 21 21 22 22 22 22 21 21 22 23 24 24 25 25 26 27 28 30 31 32 33 34 34 33 33 36 38 39 40
30 29 31 32 35 36 34 32 32 31 30 28 27 28 29 29 29 28 26 24 23 23 21 21 21 20 19 19 18 19 19 20 20 21 21 21 22 22 22 22 22 22 23 23 24 25 25 26 26 27 29 30 31 32 32 33 33 33 33 35 38 39 39
31 31 33 33 34 33 31 28 28 29 28 27 27 28 29 29 29 28 26 24 24 23 22 22 21 21 19 19 18 19 20 20 20 21 21 22 22 22 22 21 22 22 23 24 25 25 26 26 27 28 29 30 31 31 31 31 32 33 33 36 37 38 39
32 33 33 33 32 30 27 26 26 27 27 27 28 29 30 30 30 28 26 24 24 23 22 22 21 21 20 19 19 20 20 20 20 21 22 22 21 21 21 21 21 22 22 24 25 25 26 26 27 27 29 30 30 30 30 31 33 33 35 37 38 38 39
34 34 33 33 32 29 27 27 26 27 27 28 28 30 31 30 29 28 26 25 24 23 23 22 22 21 20 20 20 20 21 21 21 22 22 22 21 21 21 21 21 21 22 23 24 24 25 25 26 27 28 29 29 29 30 31 33 35 36 37 38 39 40
34 35 34 33 33 32 30 28 27 27 28 29 29 30 31 31 29 28 27 26 25 24 23 22 22 21 21 21 21 21 21 21 21 22 22 21 21 21 21 21 21 21 21 22 23 23 24 25 26 27 28 28 28 29 31 32 34 35 36 37 38 39 39
35 36 36 35 35 35 33 29 28 29 29 30 30 31 32 31 29 28 27 26 25 24 23 22 22 22 22 22 22 22 21 21 21 22 22 22 22 21 21 21 21 21 21 22 22 23 23 25 26 27 28 28 28 30 31 33 34 34 35 37 38 38 38
37 37 38 37 37 38 36 32 30 30 31 31 31 32 33 32 30 29 28 27 26 25 24 23 22 22 22 23 23 22 22 22 22 22 22 22 22 22 22 22 22 22 22 22 23 23 24 25 26 27 28 28 29 31 32 33 33 33 35 37 38 38 38
39 39 39 40 40 40 38 34 31 31 32 32 32 33 34 33 30 29 28 27 26 25 24 23 22 23 23 24 24 23 23 22 22 22 23 23 23 23 23 23 23 23 23 23 24 24 25 26 27 28 28 29 30 32 32 32 32 34 36 37 37 38 39
41 40 41 42 42 42 39 35 33 32 32 33 34 34 35 33 30 29 28 27 27 25 24 23 23 23 24 24 25 24 24 24 23 23 23 23 23 24 24 24 24 24 24 25 25 25 26 27 28 28 29 30 30 31 32 32 33 35 37 37 37 38 38
42 42 44 44 44 43 39 35 34 33 33 34 35 35 35 33 30 29 28 28 27 26 24 24 24 24 25 25 25 25 25 25 24 24 24 24 24 25 25 25 25 25 26 26 27 27 27 28 28 29 30 29 30 30 31 32 34 36 36 36 37 38 38
43 45 46 46 45 43 39 35 34 33 34 35 35 35 34 32 30 30 29 29 28 26 25 25 25 25 25 25 26 26 27 26 26 25 25 25 25 25 25 25 25 26 27 28 28 28 28 28 29 30 30 30 30 30 30 32 35 36 36 37 38 38 38
45 47 48 46 45 42 38 35 35 34 35 36 36 35 34 32 31 31 30 29 28 26 26 27 27 27 26 26 27 28 27 27 27 26 26 26 26 26 25 26 26 26 27 28 28 28 29 30 30 30 30 29 29 30 31 33 36 37 37 38 38 38 38
46 49 49 46 44 41 36 35 35 35 36 38 37 36 34 33 32 32 31 30 28 28 27 28 28 27 27 27 28 28 28 28 28 27 27 27 26 26 26 27 27 27 28 28 29 29 29 30 30 29 29 29 29 30 32 35 37 38 38 38 38 38 38
49 51 49 46 43 38 36 36 36 37 39 39 38 36 35 33 33 32 31 30 30 29 29 29 29 28 28 29 29 29 29 29 29 29 28 28 27 26 27 27 27 27 28 29 30 30 30 30 30 30 29 29 29 31 34 37 38 39 39 38 38 37 37
51 52 49 45 41 37 38 38 38 39 40 39 38 37 35 34 34 33 32 31 31 30 29 30 30 29 29 30 30 30 30 30 30 29 29 29 28 27 27 28 28 29 30 31 31 31 30 30 30 29 28 28 30 33 36 39 40 39 38 37 37 37 36
53 51 47 43 39 39 40 40 40 40 40 38 38 37 36 35 34 33 33 33 32 31 31 31 31 30 31 30 30 31 31 31 31 30 30 30 29 29 29 29 30 32 32 32 32 31 30 29 29 28 28 29 32 35 38 40 40 39 37 36 36 36 35
52 50 45 41 40 41 41 41 42 41 39 39 39 37 36 37 36 34 34 34 34 33 33 32 32 31 31 31 31 31 32 32 33 32 32 31 32 32 32 32 33 34 34 33 32 31 29 29 29 28 29 31 34 37 39 39 39 37 36 36 35 34 33
50 46 42 40 41 42 43 43 43 40 38 39 39 37 37 38 37 36 35 35 36 35 34 33 32 32 32 31 31 32 32 33 34 34 34 34 35 36 36 35 36 36 34 33 32 30 29 30 30 30 31 33 35 37 38 38 37 36 35 35 34 33 33
47 43 41 42 43 43 43 43 42 39 38 39 38 37 38 38 38 36 36 37 37 36 34 34 33 32 32 32 32 32 33 34 35 37 37 37 38 39 38 38 37 36 35 34 32 29 29 30 31 31 33 34 35 36 37 37 36 35 35 35 33 32 32
45 43 42 43 43 43 43 42 41 40 39 38 38 37 37 38 38 38 38 39 38 37 35 34 33 33 33 33 32 32 34 34 35 37 38 39 40 40 40 39 38 36 34 32 29 28 29 30 31 31 33 34 35 36 36 35 34 34 35 35 33 32 32
44 44 44 43 43 42 41 41 41 40 40 40 40 39 38 38 39 40 40 40 39 38 36 35 35 35 34 34 33 32 33 34 34 36 37 39 40 41 41 40 37 33 29 27 26 27 29 30 30 31 32 33 34 35 35 34 33 34 35 34 33 33 34
44 45 44 42 41 40 39 40 41 42 42 42 41 41 40 41 40 40 41 41 40 38 36 36 37 37 36 35 34 33 34 35 36 37 37 38 38 39 41 41 37 30 26 25 26 27 28 29 30 31 32 33 34 35 34 33 33 34 34 33 33 35 35
44 43 41 39 39 39 39 39 40 41 42 42 41 40 41 42 41 40 40 40 41 39 37 38 39 38 38 37 36 35 35 36 37 39 39 38 36 37 40 40 36 30 27 26 26 27 28 30 31 31 32 33 33 34 33 32 32 33 33 33 34 36 36
43 41 39 39 40 40 38 37 37 39 39 38 37 38 40 41 41 40 39 40 40 40 39 40 41 40 40 39 38 37 38 38 39 41 41 39 38 39 37 36 33 28 26 26 26 28 29 31 31 31 31 32 33 33 32 31 32 33 33 34 35 37 37

ECMWFFLT1_500_spd_141.txt.gz
Wind_Speed
25 25 25 24 24 24 24 24 24 24 23 22 22 22 22 23 24 23 23 23 22 22 21 21 21 20 19 19 18 18 18 17 18 18 19 20 21 20 19 20 22 23 24 26 26 24 22 21 21 20 19 19 19 21 24 26 27 29 31 32 32 32 34
26 26 25 25 25 25 26 25 25 25 24 24 23 23 23 23 24 24 23 23 23 22 22 22 22 21 20 19 18 18 17 17 17 18 18 19 20 19 19 21 22 24 25 26 26 24 23 22 21 20 19 20 20 22 24 26 28 29 31 33 34 33 34
28 27 26 26 26 27 27 26 26 26 25 25 23 24 24 24 24 24 23 23 23 23 23 23 23 22 20 19 18 17 16 17 17 17 17 18 19 19 19 21 22 23 24 25 25 24 23 23 23 21 19 19 20 23 25 27 28 29 31 33 34 35 35
28 28 28 26 26 27 27 27 27 26 25 25 24 24 24 24 24 24 23 23 24 24 24 23 22 21 20 20 18 16 16 17 17 17 17 18 18 19 19 21 22 23 24 25 24 24 23 22 23 23 21 19 18 20 24 28 30 30 32 34 34 36 36
29 29 28 27 27 27 27 28 27 26 25 25 26 25 24 24 24 24 24 23 24 25 25 24 22 21 21 20 18 17 17 17 17 17 16 17 18 18 19 21 22 22 23 24 23 22 22 22 22 22 23 22 21 21 22 26 31 32 33 35 35 36 37
29 30 29 27 27 27 28 28 28 26 25 26 27 25 24 24 25 25 25 24 25 26 26 24 23 22 21 19 19 18 18 18 17 16 16 16 17 18 19 20 21 22 23 23 22 21 21 21 21 21 22 24 25 26 24 25 30 33 33 35 36 36 37
31 31 30 27 27 28 28 29 29 27 26 26 26 25 24 24 25 25 25 25 25 27 26 24 22 22 20 20 20 19 19 19 17 16 16 16 17 17 18 20 21 22 22 22 21 21 21 21 21 21 23 24 25 28 29 27 29 32 33 35 37 37 37
33 32 30 28 27 28 29 29 30 29 27 26 26 25 24 25 26 26 26 26 26 27 26 24 22 22 22 21 21 20 20 19 17 16 16 16 17 17 18 20 21 21 22 21 20 20 21 21 21 22 23 25 26 27 30 31 30 31 32 34 37 38 38
35 32 29 28 28 28 29 30 31 30 29 27 27 26 25 26 27 27 28 27 26 27 26 24 23 23 23 22 21 20 20 19 17 17 16 16 17 18 18 20 21 22 21 21 21 20 21 21 22 22 23 25 27 28 30 31 32 33 33 34 36 37 37
36 32 28 27 27 29 30 31 32 32 31 29 28 28 27 27 27 29 29 28 27 27 26 24 23 23 23 22 21 21 21 19 18 17 17 17 17 18 19 20 21 22 21 20 21 21 21 22 22 23 24 25 27 29 31 31 32 33 34 35 37 36 36
36 31 27 27 28 28 29 31 33 34 33 31 30 29 29 29 29 30 30 29 27 26 26 25 24 23 23 22 22 22 21 20 19 18 17 17 17 18 19 20 21 21 21 20 21 21 21 22 23 24 24 25 27 29 31 33 33 33 32 33 36 36 35
35 31 27 26 27 28 29 31 34 35 34 33 32 31 31 31 30 30 30 28 26 25 26 26 25 24 23 22 22 22 21 20 19 18 17 17 18 18 19 20 20 21 21 21 21 21 22 22 23 24 25 26 27 29 31 34 35 34 31 32 35 35 35
35 31 28 26 27 28 30 32 34 36 35 34 33 32 32 32 30 29 28 26 24 24 26 26 25 24 23 23 22 21 21 20 20 19 18 18 18 18 19 20 20 21 22 22 21 22 22 23 23 24 25 26 28 29 31 33 35 34 32 32 34 34 35
36 33 30 28 27 29 31 33 35 36 35 33 33 33 32 31 29 28 27 25 23 24 25 25 25 24 24 23 22 22 21 21 21 20 19 19 18 18 19 20 21 21 22 22 22 22 22 23 23 24 25 27 28 30 31 33 35 33 31 33 35 35 36
37 35 32 29 29 30 32 33 35 37 36 34 33 33 31 28 27 26 26 24 23 25 25 25 25 24 24 24 22 22 22 21 21 21 20 19 18 19 19 20 21 21 22 22 21 22 22 23 24 25 26 27 28 30 31 32 34 33 31 32 35 36 36
38 37 35 31 31 32 33 33 36 38 37 34 33 32 29 27 26 26 25 25 24 25 25 24 24 25 25 24 23 23 23 22 22 22 21 19 19 19 20 20 21 21 22 22 21 22 23 23 24 25 26 27 28 29 30 32 33 33 32 32 35 36 36
40 39 37 34 33 33 33 34 37 39 38 35 33 30 28 27 26 26 25 26 26 26 25 24 24 25 25 25 25 24 24 23 23 22 21 20 19 19 20 20 21 21 22 21 22 23 23 23 25 26 26 27 28 29 30 31 32 33 34 33 35 36 35
43 41 37 35 34 34 35 36 38 39 38 36 33 30 28 27 26 26 27 27 28 27 24 24 24 25 26 26 26 26 25 25 24 23 22 21 20 20 20 21 21 21 22 22 23 23 23 24 25 26 27 28 28 29 30 31 32 33 35 35 35 36 36
45 42 37 35 34 35 36 37 37 38 37 37 34 30 28 27 26 27 28 29 29 28 25 24 24 25 27 27 26 27 26 26 25 23 22 22 22 21 21 21 21 21 23 23 24 25 25 25 26 27 28 29 29 30 30 31 32 33 35 35 34 35 37
47 43 37 35 35 37 37 38 38 37 37 38 37 32 28 27 26 27 30 31 30 29 25 24 25 26 27 27 28 28 28 27 25 24 23 23 23 23 22 22 21 21 23 24 25 25 26 26 27 28 29 30 30 31 31 32 32 33 34 35 34 35 38
48 45 39 36 37 38 39 39 39 38 38 39 39 34 29 28 28 28 31 32 31 30 27 25 26 27 28 29 29 29 29 27 26 24 24 24 24 24 24 23 22 22 24 25 25 26 27 27 28 29 30 31 31 32 32 32 33 33 33 34 35 36 38
49 47 42 38 38 39 40 41 41 40 39 39 40 37 31 29 29 30 32 33 32 31 28 26 27 27 29 30 30 30 29 28 27 26 26 25 24 25 25 24 23 23 24 25 26 26 27 28 29 30 31 32 32 33 33 32 33 33 33 33 35 36 39
51 48 46 41 38 39 42 44 43 43 41 40 41 40 34 31 31 31 33 34 33 31 29 28 28 28 30 32 31 31 30 28 28 28 27 26 25 25 26 25 25 25 25 26 26 27 28 29 29 30 31 32 33 33 33 33 33 33 32 33 35 37 40
52 51 49 44 39 39 43 46 46 46 44 42 43 42 35 32 32 32 33 35 33 32 30 29 29 29 31 33 32 31 30 29 29 29 28 27 26 26 27 27 27 26 26 26 27 27 28 29 29 30 30 32 33 33 33 33 32 32 33 34 36 38 40
52 52 50 45 40 40 44 48 49 48 47 44 44 43 37 33 33 33 34 36 34 32 32 31 30 30 32 33 33 32 31 30 30 30 28 28 28 27 28 28 28 27 27 27 28 28 28 29 29 30 31 32 33 34 33 33 32 32 33 35 37 39 41
51 52 49 45 43 43 46 50 51 50 48 46 45 44 38 34 34 34 36 37 35 34 33 32 32 32 33 34 34 33 32 32 31 30 29 29 29 29 29 29 29 29 29 29 29 28 29 29 30 31 32 33 34 34 34 32 31 32 34 36 39 40 41
53 52 50 48 47 46 48 51 52 50 49 47 46 44 38 35 34 35 37 39 37 34 33 33 34 33 33 34 34 34 34 33 32 31 30 30 30 29 29 29 29 30 30 31 30 30 30 30 31 32 33 34 34 34 33 32 31 32 35 37 39 40 40
56 54 52 51 49 49 51 53 52 50 49 48 46 43 39 35 35 37 39 40 38 35 33 34 35 34 33 34 35 36 36 34 32 32 31 31 31 30 29 29 29 30 31 32 32 31 32 33 33 33 34 35 35 34 33 32 32 34 36 38 39 39 39
58 56 54 53 51 51 53 53 51 50 50 48 45 42 38 36 37 39 41 40 38 35 34 35 36 35 34 35 36 36 37 35 33 33 33 32 31 30 30 30 31 31 32 33 33 33 34 35 35 35 35 35 35 35 33 32 33 35 37 38 38 38 38
58 57 55 54 52 53 54 53 51 50 49 46 43 40 38 38 40 41 41 39 37 35 35 36 37 37 36 36 36 37 37 36 35 34 34 33 32 31 31 31 32 33 34 35 35 36 37 38 38 37 36 37 37 36 34 33 34 36 37 37 37 37 36
56 56 55 53 52 53 53 52 51 49 47 45 42 40 40 41 41 41 40 38 37 36 36 37 39 39 37 36 37 37 37 37 36 36 35 34 33 33 32 32 33 35 35 35 37 38 39 40 39 39 39 39 37 35 33 34 35 36 36 36 36 36 35
53 53 53 53 53 53 52 52 51 49 46 44 42 41 42 41 40 40 39 37 37 37 36 38 39 39 38 37 38 38 38 38 38 37 37 36 35 35 33 33 34 35 36 36 39 40 41 41 40 39 39 38 35 34 33 34 35 35 35 35 36 35 33
50 51 51 51 52 53 53 52 50 48 46 44 42 42 42 41 40 40 39 38 39 38 36 37 39 39 39 38 38 38 38 38 39 39 38 37 36 36 35 34 34 36 37 38 40 41 41 41 40 39 38 35 33 33 34 33 33 34 34 35 35 34 32
49 50 50 50 52 53 53 51 49 48 45 43 43 42 41 41 40 40 39 40 41 40 37 36 38 39 39 39 39 38 38 39 39 39 38 38 38 37 36 35 35 38 40 40 41 42 40 40 40 39 36 33 32 33 33 32 33 34 34 34 34 33 32
49 49 49 50 51 51 51 50 48 47 44 43 42 42 41 41 41 41 40 42 43 42 38 37 39 40 40 39 39 38 38 39 40 40 39 39 39 39 38 36 36 39 42 42 42 41 41 43 43 39 35 32 31 32 32 32 33 34 35 34 34 33 32
49 49 49 50 51 51 50 49 47 45 43 43 43 42 42 41 41 42 42 43 44 43 40 39 40 42 41 40 39 38 39 40 41 41 41 41 40 39 39 37 38 41 44 44 42 41 44 45 41 35 30 29 29 30 31 33 33 34 35 35 34 33 32
50 49 48 50 50 50 49 48 46 45 44 44 43 43 43 41 42 43 43 43 44 43 40 39 39 41 41 41 40 40 40 41 42 43 43 42 40 40 40 39 40 43 45 44 42 41 41 38 32 27 26 27 27 29 31 32 32 33 34 35 34 33 33